Location: Dulzura
(32.6442°N, 116.7814°W)
Time: 00:42:06
(UTC+00:00)

X-37B - Visible Passes

Search period start: 29 November 2022 00:00
Search period end: 09 December 2022 00:00
Orbit: 277 x 277 km, 45.0° (Epoch: 01 November)

Date Brightness Start Highest point End Pass type
(mag) Time Alt. Az. Time Alt. Az. Time Alt. Az.
04 Dec 3.0 02:28:49 10° SW 02:29:24 15° SW 02:29:24 15° SW visible
05 Dec 2.9 02:29:29 10° WSW 02:30:23 19° WSW 02:30:23 19° WSW visible
06 Dec 3.0 02:30:31 10° W 02:31:18 16° WNW 02:31:18 16° WNW visible
07 Dec 3.3 02:31:53 10° WNW 02:32:08 11° WNW 02:32:08 11° WNW visible
